Simultaneous Nadir Overpasses (SNOs) Predictions

Prediction of SNOs between NPP and TERRA Satellite Orbit:

Table of predicted SNOs for the next 14.0 days since TLE Epoch: 9/5/2020
Index Date (NPP) Time (NPP) Lat,Lon (NPP) SZA (NPP ) Date (TERRA) Time (TERRA) Lat,Lon (TERRA) SZA (TERRA ) Distance(km) Time Diff (sec)
1 09/05/2020 02:56:18 68.35, 134.57 61.57 09/05/2020 02:56:47 68.34, 134.58 61.56 1.09 29
2 09/05/2020 03:46:59 -68.21, -57.93 118.56 09/05/2020 03:46:17 -68.22, -57.92 118.55 1.84 42
3 09/07/2020 18:22:33 -68.67, 82.61 117.12 09/07/2020 18:23:45 -68.60, 83.13 117.20 22.84 72
4 09/07/2020 19:13:12 68.29,-109.58 62.51 09/07/2020 19:13:16 68.27,-109.62 62.49 2.65 4
5 09/07/2020 20:03:53 -68.14, 57.93 117.63 09/07/2020 20:02:46 -68.16, 57.88 117.61 2.64 67
6 09/10/2020 10:39:24 -68.40,-161.26 116.39 09/10/2020 10:40:17 -68.42,-161.21 116.37 3.30 53
7 09/10/2020 11:30:07 68.23, 6.27 63.46 09/10/2020 11:29:45 68.25, 6.24 63.48 2.95 22
8 09/10/2020 12:20:36 -67.43, 174.57 117.33 09/10/2020 12:19:27 -67.48, 172.97 117.28 68.11 69
9 09/13/2020 02:05:55 69.40, 145.83 65.64 09/13/2020 02:07:01 69.34, 148.21 65.57 93.43 66
10 09/13/2020 02:56:19 -68.34, -45.41 115.43 09/13/2020 02:56:47 -68.35, -45.41 115.42 1.00 28
11 09/13/2020 03:47:03 68.23, 122.04 64.48 09/13/2020 03:46:14 68.23, 122.09 64.48 2.17 49
12 09/15/2020 18:22:34 68.49, -97.15 65.74 09/15/2020 18:23:45 68.48, -97.00 65.73 6.19 71
13 09/15/2020 19:13:14 -68.28, 70.44 114.46 09/15/2020 19:13:17 -68.27, 70.37 114.47 2.90 3
14 09/15/2020 20:03:57 68.12,-122.05 65.40 09/15/2020 20:02:44 68.15,-122.12 65.43 4.70 73
15 09/18/2020 10:39:27 68.38, 18.76 66.67 09/18/2020 10:40:14 68.39, 18.77 66.68 1.32 47
16 09/18/2020 11:30:08 -68.22,-173.72 113.48 09/18/2020 11:29:45 -68.24,-173.78 113.46 3.02 23
17 09/18/2020 12:20:35 67.20, -5.16 65.52 09/18/2020 12:19:28 67.22, -7.30 65.53 92.29 67
